Home   Weather   Drøbak   Past weeks

Flag for Norway Past Weather in Drøbak, Norway — Yesterday and Last 2 Weeks

52 °F

Sprinkles. Passing clouds.

Feels Like: 43 °F
Forecast: 41 / 50 °F
Wind: 44 mph from Southwest

Location: Statfjord B

Current Time: Oct 26, 2016 at 6:08:45 AM

Latest Report: Oct 26, 2016 at 5:20 AM

Visibility: N/A

Pressure: 29.89 "Hg

Humidity: 88%

Dew Point: 48 °F

Location of DrøbakLocation

Past Weather in Drøbak — Graph


Drøbak Temperature Yesterday

Maximum temperature yesterday: 52 °F (at 8:20 PM)
Minimum temperature yesterday: 48 °F (at 10:50 PM)
Average temperature yesterday: 50 °F

High & Low Weather Summary for the Past Weeks

High57 °F (Oct 12, 2:50 PM)100% (Oct 19, 6:20 PM)30.54 "Hg (Oct 19, 6:20 PM)
Low46 °F (Oct 23, 2:20 PM)50% (Oct 23, 2:20 PM)29.80 "Hg (Oct 17, 11:50 PM)
Average51 °F79%30.21 "Hg
* Reported Oct 11 4:20 AM — Oct 26 4:50 AM, Drøbak, Weather by CustomWeather, © 2016

Note: Actual official high and low records may vary slightly from our data, if they occured in-between our weather recording intervals... More about our weather records


Drøbak Weather History for the Previous 24 Hours

Scroll right to see more
Time TempWeatherWind HumidityBarometerVisibility
4:50 AM
Wed, Oct 26
52 °FPassing clouds.46 mph82%29.89 "HgN/A
4:20 AM52 °FSprinkles. Partly cloudy.46 mph82%29.92 "HgN/A
3:50 AM52 °FPassing clouds.44 mph82%29.92 "HgN/A
3:20 AM52 °FPassing clouds.41 mph82%29.95 "HgN/A
2:50 AM50 °FSprinkles. Passing clouds.37 mph88%29.95 "HgN/A
2:20 AM50 °FLight rain. Passing clouds.38 mph88%29.98 "Hg4 mi
1:50 AM52 °FPartly cloudy.44 mph82%29.98 "HgN/A
1:20 AM50 °FPartly cloudy.45 mph88%29.98 "HgN/A
12:50 AM50 °FSprinkles. Partly cloudy.50 mph76%29.98 "HgN/A
12:20 AM50 °FLight rain. Passing clouds.41 mph88%30.01 "HgN/A
11:50 PM
Tue, Oct 25
52 °FPassing clouds.46 mph82%30.01 "HgN/A
11:20 PM50 °FSprinkles. Passing clouds.40 mph82%30.04 "HgN/A
10:50 PM48 °FSprinkles. Fog.43 mph82%30.04 "Hg2 mi
10:20 PM50 °FSprinkles. Passing clouds.43 mph82%30.04 "HgN/A
9:50 PM50 °FLight rain. Passing clouds.43 mph88%30.04 "Hg4 mi
9:20 PM52 °FPassing clouds.41 mph82%30.07 "HgN/A
8:50 PM52 °FPassing clouds.47 mph77%30.07 "HgN/A
8:20 PM52 °FPartly cloudy.41 mph82%30.07 "HgN/A
7:50 PM50 °FSprinkles. Passing clouds.35 mph88%30.07 "HgN/A
7:20 PM50 °FSprinkles. Passing clouds.37 mph82%30.07 "HgN/A
6:50 PM50 °FSprinkles. Passing clouds.38 mph88%30.09 "HgN/A
6:20 PM50 °FSprinkles. Passing clouds.37 mph88%30.09 "HgN/A
5:50 PM50 °FSprinkles. Passing clouds.38 mph88%30.09 "HgN/A
5:20 PM50 °FLight rain. Partly sunny.43 mph88%30.09 "HgN/A
4:50 PM50 °FLight rain. Broken clouds.39 mph88%30.09 "HgN/A
4:20 PM50 °FScattered clouds.36 mph88%30.12 "HgN/A
3:50 PM50 °FSprinkles. Partly sunny.37 mph88%30.12 "HgN/A
3:20 PM50 °FPartly sunny.38 mph88%30.12 "HgN/A
2:50 PM50 °FLight rain. Partly sunny.41 mph88%30.12 "HgN/A
2:20 PM50 °FPassing clouds.35 mph88%30.12 "HgN/A
1:50 PM50 °FPartly sunny.35 mph82%30.15 "HgN/A
1:20 PM50 °FSprinkles. Partly sunny.39 mph82%30.15 "Hg4 mi
12:50 PM50 °FPartly sunny.N/A82%30.15 "HgN/A
Weather by CustomWeather, © 2016

See weather overviewHow to use our weather pages